Modesto, CA

10:10 AM PDT on June 29, 2017 (GMT -0700)
Modesto City-County-Sham

Weather History for KMOD - October, 2013

Change the Weather History Date:

Sunday, October 20, 2013

  Actual Average Record
Temperature  
Mean Temperature 66 °F -  
Max Temperature 83 °F 77 °F 90 °F (1964)
Min Temperature 48 °F 52 °F 31 °F (1949)
Degree Days  
Heating Degree Days 0 2  
Month to date heating degree days 25 21  
Since 1 July heating degree days 27 24  
Cooling Degree Days 1 2  
Month to date cooling degree days 11 75  
Year to date cooling degree days 1717 1687  
Growing Degree Days 15 (Base 50)    
Moisture  
Dew Point 44 °F    
Average Humidity 52    
Maximum Humidity 86    
Minimum Humidity 18    
Precipitation  
Precipitation 0.00 in 0.03 in 0.24 in (1944)
Month to date precipitation 0.00 0.36  
Year to date precipitation 3.34 9.39  
Since 1 July precipitation 0.13  
Snow  
Snow 0.00 in - 0.00 in (2002)
Month to date snowfall 0.0  
Since 1 July snowfall 0.0  
Since 1 September snowfall 0.0  
Snow Depth -    
Sea Level Pressure  
Sea Level Pressure 29.95 in    
Wind  
Wind Speed 1 mph (NW)    
Max Wind Speed 16 mph    
Max Gust Speed -    
Visibility 10 miles    
Events      
T = Trace of Precipitation, MM = Missing Value Source: NWS Daily Summary

Daily Weather History Graph

Daily Weather History Graph

Search for Another Location

Airport or City:

Trip Planner

Search our weather history database for the weather conditions in past years. The results will help you decide how hot, cold, wet, or windy it might be!

Date:

Astronomy

Oct. 20, 2013 Rise Set
Actual Time 7:17 AM PDT 6:19 PM PDT
Civil Twilight 6:50 AM PDT 6:45 PM PDT
Nautical Twilight 6:20 AM PDT 7:16 PM PDT
Astronomical Twilight 5:49 AM PDT 7:46 PM PDT
Moon 7:33 PM PDT (10/20) 8:57 AM PDT (10/20)
Length of Visible Light 11h 55m
Length of Day
11h 02m
Waning Gibbous, 97% of the Moon is Illuminated
Oct 20
Waning Gibbous
Oct 26
Last Quarter
Nov 3
New
Nov 9
First Quarter
Nov 17
Full

Hourly Weather History & Observations

Time (PDT) Temp. Dew Point Humidity Pressure Visibility Wind Dir Wind Speed Gust Speed Precip Events Conditions
12:53 AM 55.0 °F 46.0 °F 72% 29.99 in 10.0 mi Calm Calm - N/A   Clear
1:53 AM 52.0 °F 46.0 °F 80% 29.99 in 10.0 mi Calm Calm - N/A   Clear
2:53 AM 50.0 °F 46.0 °F 86% 29.98 in 9.0 mi Calm Calm - N/A   Clear
3:53 AM 51.1 °F 46.0 °F 83% 29.97 in 9.0 mi Calm Calm - N/A   Clear
4:53 AM 50.0 °F 46.0 °F 86% 29.97 in 8.0 mi Calm Calm - N/A   Clear
5:53 AM 50.0 °F 45.0 °F 83% 29.97 in 8.0 mi North - - N/A   Clear
6:53 AM 48.0 °F 44.1 °F 86% 29.98 in 8.0 mi Calm Calm - N/A   Clear
7:53 AM 50.0 °F 44.1 °F 80% 29.99 in 7.0 mi Calm Calm - N/A   Clear
8:53 AM 57.0 °F 39.0 °F 51% 30.01 in 10.0 mi Calm Calm - N/A   Clear
9:53 AM 63.0 °F 42.1 °F 46% 30.01 in 10.0 mi NNW 4.6 mph - N/A   Clear
10:53 AM 68.0 °F 44.1 °F 42% 30.00 in 10.0 mi Calm Calm - N/A   Clear
11:53 AM 72.0 °F 44.1 °F 37% 29.99 in 10.0 mi Calm Calm - N/A   Clear
12:53 PM 75.9 °F 44.1 °F 32% 29.96 in 10.0 mi Variable 3.5 mph - N/A   Clear
1:53 PM 79.0 °F 41.0 °F 26% 29.93 in 10.0 mi NNW 4.6 mph - N/A   Clear
2:53 PM 80.1 °F 41.0 °F 25% 29.91 in 10.0 mi West 4.6 mph - N/A   Clear
3:53 PM 82.0 °F 36.0 °F 19% 29.90 in 10.0 mi NW 6.9 mph - N/A   Clear
4:53 PM 81.0 °F 37.9 °F 21% 29.88 in 10.0 mi NW 4.6 mph - N/A   Clear
5:53 PM 80.1 °F 37.0 °F 21% 29.88 in 10.0 mi NNW 3.5 mph - N/A   Clear
6:53 PM 69.1 °F 46.0 °F 44% 29.89 in 10.0 mi Calm Calm - N/A   Clear
7:53 PM 64.9 °F 46.9 °F 52% 29.89 in 10.0 mi Calm Calm - N/A   Clear
8:53 PM 63.0 °F 48.0 °F 58% 29.89 in 10.0 mi Calm Calm - N/A   Clear
9:53 PM 59.0 °F 46.9 °F 64% 29.90 in 10.0 mi Calm Calm - N/A   Clear
10:53 PM 55.0 °F 46.9 °F 74% 29.90 in 10.0 mi Calm Calm - N/A   Clear
11:53 PM 55.0 °F 48.0 °F 77% 29.91 in 10.0 mi Calm Calm - N/A   Clear